Regional Weather Roundup
Issued by NWS Wakefield, VA

Home | Current Version | Previous Version | Text Only | Print | Product List | Glossary Off
Versions: 1 2 3 4 5 6 7 8 9 10 11 12 13 14 15 16 17 18 19 20 21 22 23 24 25 26 27 28 29 30 31 32 33 34 35 36 37 38 39 40 41 42 43 44 45 46 47 48 49 50

000
ASUS41 KAKQ 230810
RWRAKQ

REGIONAL WEATHER ROUNDUP
NATIONAL WEATHER SERVICE WAKEFIELD VA
400 AM EDT WED JUL 23 2014

Note: "fair" indicates few or no clouds below 12,000 feet with no
significant weather and/or obstructions to visibility. * = Denotes
station may not report precipitation (e.g., rain,snow,etc.),
thunder or fog.

VAZ042-051-052>054-056-230900-
NORTHERN VIRGINIA

CITY           SKY/WX    TMP DP  RH WIND       PRES   REMARKS
WASH NATIONAL  PTCLDY    76  69  79 S8        30.03F
DULLES         PTCLDY    71  68  90 S6        30.03F
FORT BELVOIR   CLEAR     70  69  95 CALM      30.03F
QUANTICO       CLEAR     75  69  81 SW7       30.03F
FREDERICKSBRG* CLEAR     72  70  95 CALM      30.03F
STAFFORD*      CLEAR     70  70 100 SE3       30.07F
WARRENTON      CLEAR     72  72 100 S3        30.03S
CULPEPER*      PTCLDY   N/A N/A N/A CALM      30.03F FOG
MANASSAS*      PTCLDY    72  72 100 S5        30.03S
LEESBURG*      MOCLDY    72  72 100 S6        30.03F
WINCHESTER     MOCLDY    73  70  88 S6        30.02F
$$

VAZ048-049-060>072-079>083-230900-
CENTRAL AND SOUTH CENTRAL VIRGINIA...AND NORTH CENTRAL NORTH CAROLINA

CITY           SKY/WX    TMP DP  RH WIND       PRES   REMARKS
RICHMOND       PTCLDY    72  68  87 CALM      30.05S
CHESTERFIELD*  SUNNY     70  61  73 CALM      30.06F
HANOVER        CLEAR     69  67  93 CALM      30.06F
TAPPAHANNOCK*  MOCLDY    69  66  90 CALM      30.05F FOG
CHARLOTTSVILLE CLEAR     70  69  97 CALM      30.05S
ORANGE*        CLEAR     70  68  94 CALM      30.06S
LOUISA*        CLEAR     70  68  94 CALM      30.04F FOG
FARMVILLE*     FOG       70  70 100 CALM      30.04F VSB 1/2
SOUTH HILL*    FOG       72  72 100 CALM      30.11S VSB 1/4
ROANOKE RAPIDS FOG       66  64  94 CALM      30.05F VSB 1/4
RALEIGH        FOG       73  70  88 CALM      30.06F VSB 1/4
$$

VAZ088>098-230900-
SOUTHEAST VIRGINIA

CITY           SKY/WX    TMP DP  RH WIND       PRES   REMARKS
NORFOLK        PTCLDY    75  72  90 CALM      30.03F
VIRGINIA BEACH PTCLDY    74  72  93 CALM      30.03S
NORFOLK NAVAL  MOCLDY    76  73  91 W3        30.05F
WEST POINT*    MOCLDY    73  70  91 CALM      30.06S
NEWPORT NEWS   CLOUDY    77  72  84 CALM      30.04F
LANGLEY AFB    CLOUDY    73  73 100 CALM      30.03F
FORT EUSTIS    CLOUDY    74  74 100 SW2       30.02F
WILLIAMSBURG*  CLOUDY    75  75 100 W3        30.05F
FRANKLIN*      CLOUDY    73 N/A N/A CALM      30.05S VSB<1/4
WAKEFIELD      FOG       74  72  93 SW3       30.04F VSB 3/4
$$

VAZ020-022-025-037-045-230900-
WESTERN AND SOUTHWEST VIRGINIA

CITY           SKY/WX    TMP DP  RH WIND       PRES   REMARKS
STAUNTON*      MOCLDY    70  67  89 S3        30.09F
HOT SPRINGS VA CLOUDY    64  63  94 W10       30.23S
LYNCHBURG      CLEAR     68  67  96 CALM      30.09S FOG
DANVILLE       PTCLDY    69  67  93 CALM      30.07S FOG
MARTINSVILLE   CLEAR     66  65  97 CALM      30.11S FOG
ROANOKE        CLEAR     69  67  93 CALM      30.11S
BLACKSBURG     CLEAR     64  64 100 CALM      30.17S FOG
DUBLIN*        CLEAR     64  64 100 CALM      30.16S FOG
MARION*        MOCLDY    63  63 100 CALM      30.19S FOG
HILLSVILLE*    CLEAR     65  65  99 SW5       30.17S
RICHLANDS*     SUNNY     72  67  83 CALM      30.17F
WISE*          CLEAR     66  66 100 SW3       30.18S
ABINGDON*      PTCLDY    68  67  97 CALM      30.14F
$$

MDZ021>025-VAZ099-100-230900-
SOUTHERN MARYLAND AND THE DELMARVA PENINSULA

CITY           SKY/WX    TMP DP  RH WIND       PRES   REMARKS
PATUXENT RIVER CLEAR     72  71  97 S5        30.03F
BAY BRIDGE APT   N/A     75  70  83 S6        30.02F
LEONARDTOWN    PTCLDY    72  70  94 CALM      30.05F
DOVER          CLEAR     70  70 100 SW7       30.01F
GEORGETOWN     PTCLDY    69  67  93 S9        30.04F
EASTON         CLEAR     73  73 100 CALM      30.07F
CAMBRIDGE      PTCLDY    72  68  88 CALM      30.03F
SALISBURY      NOT AVBL
OCEAN CITY     CLEAR     69  68  96 CALM      30.04F FOG
WALLOPS ISLAND CLEAR     72  70  93 N3        30.05F
ACCOMACK*      FOG       70  68  94 CALM      30.04F VSB 1/2
$$

NCZ012>017-030>032-230900-
EASTERN NORTH CAROLINA

CITY           SKY/WX    TMP DP  RH WIND       PRES   REMARKS
ELIZABETH CITY PTCLDY    73  73 100 S3        30.04F
AHOSKIE*       CLOUDY    70  69  96 CALM      30.05S VSB 3/4
EDENTON*       CLOUDY    76  74  95 W3        30.05S
CURRITUCK*     MOCLDY    73  70  89 CALM      30.05S
KILL DEVIL HLS CLOUDY    75  74  97 CALM      30.04S
MANTEO         NOT AVBL
CAPE HATTERAS  MOCLDY    78  75  90 W8        30.06S
GOLDSBORO      CLOUDY    75  75 100 SW1       30.04S
WASHINGTON     CLOUDY    75  74  95 SW5       30.06S
GREENVILLE     PTCLDY    73  73 100 CALM      30.06F
NEW BERN       MOCLDY    76  73  91 S3        30.07F
WILMINGTON     CLEAR     75  73  93 CALM      30.06F
$$

VAZ048-230900-
ELSEWHERE

CITY           SKY/WX    TMP DP  RH WIND       PRES   REMARKS
HARRISBURG PA  PTCLDY    75  68  78 VRB5      29.99F
BALTIMORE      CLEAR     71  67  87 CALM      30.02F
ANNAPOLIS      CLEAR     74  69  85 SW6       30.02F
ANDREWS AFB    CLEAR     71  70  96 S7        30.03F
WILMINGTON DE  CLEAR     71  66  84 S6        30.02F
PHILADELPHIA   PTCLDY    73  64  73 S8        30.02F
WILDWOOD NJ*   CLEAR     70  66  88 S6        30.04F
ATLANTIC CITY  PTCLDY    69  66  90 S5        30.03F
HENDERSON NC   CLOUDY    71  70  95 CALM      30.07S FOG
GREENSBORO     PTCLDY    70  68  93 CALM      30.08F
ROCKY MOUNT    PTCLDY    72  71  97 CALM      30.05S FOG
FAYETTEVILLE   MOCLDY    75  74  96 S7        30.05F
CHARLOTTE      MOCLDY    71  69  93 CALM      30.08F
$$

VAZ100-230900-
MARINE

STATION/POSITION TIME  TEMP    WIND        PRES    WAVE   SWELL
                       AIR SEA DIR/SP/G            HT/PER HT/PER
                 (UTC) (F)     (DEG/KT/KT) (MB)    (FT/S) (FT/S)
44066 TX TWR #4  0800   72 73  230/ 10/ 12 1017.1F   2/ 7   2/ 7
CAPE MAY NJ      0800   71 75  200/  5/  7 1016.8F
LEWES DE         0800   71 70  210/  5/  7 1016.8F
15NM E FENWICK I 0800   75 75              1017.4F   2/ 7
OCEAN-CITY-INLET 0800   72 74  340/  2/  2 1017.0F
WACHAPREAGUE VA  0800   73 82   CALM  /  1 1017.0S
THOMAS POINT MD  0800   75 79  200/ 13/ 14 1017.1F
GOOSES REEF MD   0800   76     210/ 10/ 12 1017.3F
COVE POINT MD    0800   74     200/  6/  8 1016.8F
SOLOMONS ISLAND  0800      81                N/A
BISHOPS HEAD MD  0800   77 80  200/  5/  7 1016.7F
PINEY POINT MD   0800          210/  5/  5   N/A
POTOMAC MD       0800   76     210/  8/ 10 1016.5S
CAMBRIDGE MD     0800   73 80  190/  2/  4 1016.7F
LEWISETTA VA     0800   74 81  200/  3/  5 1016.8F
RAPPAHANNOCK LGT 0800          190/  3/  4 1017.6F
STINGRAY PT      0800   77     210/  4/  4 1017.7F
YORK RVR RNG VA  0800   77     270/  4/  5 1016.5F
YORKTOWN VA      0800   75 80  210/  1/  2 1016.6F
JAMESTOWN VA     0800   72     270/  4/  6   N/A
DOMINION TERM VA 0800   76     290/  3/  4 1017.2S
KIPTOPEKE VA     0800      80  270/  3/  3   N/A
CHES BAY BRIDGE  0800   76 78  250/  4/  5 1016.5F
CAPE HENRY VA    0800   74     270/  2/  3 1016.0S
WILLOUBY STN VA  0800          250/  3/  4 1016.3F
S CRANEY ISL VA  0800          260/  2/  2 1017.1S
CAPE HENRY BUOY  0800      76                N/A     2/ 7
1ST LANDING BUOY 0800   76     280/  4/  4 1016.8F
CAPE CHARLES BUO 0800      76                N/A     2/ 8
OFFSHORE WE BUOY 0800      77                N/A     2/ 8
64NM E OF VA BCH 0800   77 78  220/ 10/ 12 1017.1F   3/ 5   2/ 5
DUCK PIER NC     0800   76 73  220/  6/ 10 1016.5S
44056 DUCK FRF   0800                        N/A     2/ 8
OREGON INLET NC  0800   77 80  240/  8/  9 1017.5F
HATTERAS NC      0800   78 82  230/  6/ 12 1018.3F
DIAMOND SHLS NC  0800          VRB 16/ 17  1017.6S   4/ 5   2/ 7
CAPE LOOKOUT NC  0800   78     240/  9/ 12 1017.7F
$$


USA.gov is the U.S. government's official web portal to all federal, state and local government web resources and services.